Change the Weather History Date:

Friday, September 20, 2013

  Actual Average (SVSA) Record (SVSA)
Temperature  
Mean Temperature 84 °F -  
Max Temperature 95 °F 92 °F 98 °F (2013)
Min Temperature 72 °F 72 °F 69 °F (2010)
Cooling Degree Days 18    
Growing Degree Days 34 (Base 50)    
Moisture  
Dew Point 67 °F    
Average Humidity 52    
Maximum Humidity 73    
Minimum Humidity 32    
Precipitation  
Precipitation 0.00 in 0.15 in - ()
Sea Level Pressure  
Sea Level Pressure 29.91 in    
Wind  
Wind Speed 5 mph ()    
Max Wind Speed 23 mph    
Max Gust Speed -    
Visibility 7.1 miles    
Events Thunderstorm    
Averages and records for this station are not official NWS values.
T = Trace of Precipitation, MM = Missing Value Source: Averaged Metar Reports

Daily Weather History Graph

Daily Weather History Graph

Search for Another Location

Airport or City:

Trip Planner

Search our weather history database for the weather conditions in past years. The results will help you decide how hot, cold, wet, or windy it might be!

Date:

Astronomy

Sep. 20, 2013 Rise Set
Actual Time 5:39 AM COT 5:47 PM COT
Civil Twilight 5:18 AM COT 6:07 PM COT
Nautical Twilight 4:54 AM COT 6:32 PM COT
Astronomical Twilight 4:30 AM COT 6:56 PM COT
Moon 6:46 PM COT (9/20) 6:29 AM COT (9/20)
Length of Visible Light 12h 49m
Length of Day
12h 07m
Full, 98% of the Moon is Illuminated
Sep 20
Full
Sep 26
Last Quarter
Oct 4
New
Oct 11
First Quarter
Oct 18
Full

Hourly Weather History & Observations

Time (COT) Temp. Heat Index Dew Point Humidity Pressure Visibility Wind Dir Wind Speed Gust Speed Precip Events Conditions
5:00 AM 73.4 °F - 64.4 °F 73% 29.97 in 6.2 mi Calm Calm - N/A   Scattered Clouds
5:30 AM 73.4 °F - 64.4 °F 73% 29.97 in 6.2 mi Variable 2.3 mph - N/A   Scattered Clouds
6:00 AM 75.2 °F - 64.4 °F 69% 29.97 in 6.2 mi Variable 2.3 mph - N/A   Scattered Clouds
7:00 AM 76 °F - 63 °F 56%  in 12 mi Calm Calm - -   Scattered Clouds
7:00 AM 77.0 °F - 62.6 °F 61% 30.00 in 6.2 mi Calm Calm - N/A   Scattered Clouds
8:00 AM 80.6 °F 81.8 °F 62.6 °F 54% 30.00 in 6.2 mi Calm Calm - N/A   Scattered Clouds
9:00 AM 87.8 °F 89.4 °F 64.4 °F 46% 29.98 in 6.2 mi West 4.6 mph - N/A   Scattered Clouds
10:00 AM 90 °F - 64 °F 32%  in 12 mi South 4.5 mph - -   Scattered Clouds
10:00 AM 89.6 °F 91.1 °F 64.4 °F 43% 29.96 in 6.2 mi South 4.6 mph - N/A   Mostly Cloudy
11:00 AM 93.2 °F 94.9 °F 64.4 °F 38% 29.93 in 6.2 mi North 4.6 mph - N/A   Mostly Cloudy
12:00 PM 95.0 °F 98.5 °F 66.2 °F 39% 29.90 in 6.2 mi North 13.8 mph - N/A   Mostly Cloudy
1:00 PM 93 °F - 69 °F 35%  in 12 mi NNW 11.2 mph - -   Scattered Clouds
1:00 PM 93.2 °F 97.7 °F 68.0 °F 44% 29.86 in 6.2 mi North 11.5 mph - N/A   Scattered Clouds
2:00 PM 93.2 °F 97.7 °F 68.0 °F 44% 29.84 in 6.2 mi North 11.5 mph - N/A   Scattered Clouds
3:00 PM 93.2 °F 96.2 °F 66.2 °F 41% 29.82 in 6.2 mi North 11.5 mph - N/A   Scattered Clouds
3:58 PM 93.2 °F 100.5 °F 71.6 °F 49% 29.83 in 6.2 mi North 11.5 mph - N/A   Scattered Clouds
4:00 PM 93 °F - 71 °F 39%  in 12 mi North 11.2 mph - -   Scattered Clouds
4:00 PM 93.2 °F 100.5 °F 71.6 °F 49% 29.83 in 6.2 mi North 11.5 mph - N/A   Scattered Clouds
4:58 PM 89.6 °F 96.2 °F 71.6 °F 55% 29.84 in 6.2 mi North 11.5 mph - N/A   Scattered Clouds
5:00 PM 89.6 °F 96.2 °F 71.6 °F 55% 29.84 in 6.2 mi North 11.5 mph - N/A   Scattered Clouds
5:58 PM 87.8 °F 93.8 °F 71.6 °F 58% 29.85 in 6.2 mi Calm Calm - N/A   Scattered Clouds
6:00 PM 87.8 °F 93.8 °F 71.6 °F 58% 29.85 in 6.2 mi Calm Calm - N/A   Scattered Clouds
8:00 PM 84.2 °F 87.3 °F 68.0 °F 58% 29.93 in 6.2 mi SSE 16.1 mph - N/A Thunderstorm Thunderstorm
9:00 PM 82.4 °F 84.6 °F 66.2 °F 58% 29.94 in 6.2 mi SSE 23.0 mph - N/A Thunderstorm Thunderstorm
10:00 PM 80.6 °F 81.8 °F 62.6 °F 54% 29.96 in 6.2 mi South 20.7 mph - N/A   Light Drizzle
11:00 PM 80.6 °F 82.3 °F 64.4 °F 58% 29.95 in 6.2 mi South 13.8 mph - N/A   Scattered Clouds